time,lasttime,lat,lng,speed,course,altitude,comment
2010-08-19 13:34:44,2010-08-19 13:34:44,40.19133,-110.38583,0,304,1773.00,""
2010-08-19 14:37:42,2010-08-19 14:37:42,40.19083,-110.38400,37,100,1911.00,""
2010-08-19 14:38:32,2010-08-19 14:38:32,40.19000,-110.38000,17,128,2274.00,""
2010-08-19 14:39:22,2010-08-19 14:39:22,40.18983,-110.37683,30,311,2612.00,""
2010-08-19 14:40:12,2010-08-19 14:40:12,40.19117,-110.37633,19,3,2936.00,""
2010-08-19 14:41:04,2010-08-19 14:41:04,40.19233,-110.37750,30,215,3305.00,""
2010-08-19 14:41:52,2010-08-19 14:41:52,40.19467,-110.37883,30,40,3673.00,""
2010-08-19 14:42:42,2010-08-19 14:42:42,40.19717,-110.38133,37,299,4043.00,""
2010-08-19 14:43:33,2010-08-19 14:43:33,40.19833,-110.38550,22,302,4399.00,""
2010-08-19 14:44:23,2010-08-19 14:44:23,40.19800,-110.39083,2,288,4749.00,""
2010-08-19 14:45:14,2010-08-19 14:45:14,40.19633,-110.39467,19,222,5087.00,""
2010-08-19 14:46:03,2010-08-19 14:46:03,40.19417,-110.39767,28,173,5463.00,""
2010-08-19 14:46:52,2010-08-19 14:46:52,40.19333,-110.39867,24,35,5836.00,""
2010-08-19 14:47:43,2010-08-19 14:47:43,40.19267,-110.39483,59,68,6210.00,""
2010-08-19 14:48:33,2010-08-19 14:48:33,40.19267,-110.38733,65,65,6593.00,""
2010-08-19 14:50:13,2010-08-19 14:50:13,40.19617,-110.36733,91,73,7357.00,""
2010-08-19 14:51:03,2010-08-19 14:51:03,40.19883,-110.35667,93,57,7756.00,""
2010-08-19 14:51:53,2010-08-19 14:51:53,40.20250,-110.34533,52,75,8154.00,""
2010-08-19 14:52:43,2010-08-19 14:52:43,40.20683,-110.33467,91,69,8557.00,""
2010-08-19 14:53:33,2010-08-19 14:53:33,40.21117,-110.32433,44,74,8988.00,""
2010-08-19 14:54:24,2010-08-19 14:54:24,40.21567,-110.31283,102,47,9412.00,""
2010-08-19 14:55:13,2010-08-19 14:55:13,40.22233,-110.30183,87,55,9819.00,""
2010-08-19 14:56:03,2010-08-19 14:56:03,40.23150,-110.28933,117,40,10253.00,""
2010-08-19 14:56:53,2010-08-19 14:56:53,40.23933,-110.27667,119,42,10697.00,""
2010-08-19 14:57:44,2010-08-19 14:57:44,40.24650,-110.26200,128,50,11143.00,""
2010-08-19 14:58:34,2010-08-19 14:58:34,40.25300,-110.24583,109,55,11583.00,""
2010-08-19 14:59:24,2010-08-19 14:59:24,40.25983,-110.22850,102,68,12010.00,""
2010-08-19 15:00:14,2010-08-19 15:00:14,40.26533,-110.20917,167,73,12435.00,""
2010-08-19 15:01:04,2010-08-19 15:01:04,40.27167,-110.18917,148,73,12853.00,""
2010-08-19 15:01:54,2010-08-19 15:01:54,40.27733,-110.16683,143,81,13282.00,""
2010-08-19 15:02:44,2010-08-19 15:02:44,40.28083,-110.14567,133,85,13741.00,""
2010-08-19 15:03:34,2010-08-19 15:03:34,40.28333,-110.12683,80,76,14231.00,""
2010-08-19 15:04:24,2010-08-19 15:04:24,40.28400,-110.11267,67,92,14710.00,""
2010-08-19 15:05:14,2010-08-19 15:05:14,40.28500,-110.10217,48,71,15193.00,""
2010-08-19 15:06:04,2010-08-19 15:06:04,40.28817,-110.09750,72,28,15676.00,""
2010-08-19 15:06:54,2010-08-19 15:06:54,40.29200,-110.09250,39,23,16194.00,""
2010-08-19 15:07:44,2010-08-19 15:07:44,40.29550,-110.08567,59,70,16694.00,""
2010-08-19 15:08:35,2010-08-19 15:08:35,40.29467,-110.08100,17,3,17222.00,""
2010-08-19 15:09:25,2010-08-19 15:09:25,40.29467,-110.07467,50,113,17814.00,""
2010-08-19 15:10:15,2010-08-19 15:10:15,40.29367,-110.07150,50,165,18360.00,""
2010-08-19 15:11:05,2010-08-19 15:11:05,40.29400,-110.06800,20,145,18941.00,""
2010-08-19 15:11:55,2010-08-19 15:11:55,40.29467,-110.06650,26,175,19492.00,""
2010-08-19 15:12:45,2010-08-19 15:12:45,40.29350,-110.06667,33,174,19980.00,""
2010-08-19 15:13:35,2010-08-19 15:13:35,40.29067,-110.06967,43,256,20537.00,""
2010-08-19 15:14:25,2010-08-19 15:14:25,40.29000,-110.07467,50,289,21074.00,""
2010-08-19 15:15:15,2010-08-19 15:15:15,40.29167,-110.07633,30,267,21647.00,""
2010-08-19 15:16:06,2010-08-19 15:16:06,40.29133,-110.08050,37,307,22199.00,""
2010-08-19 15:16:56,2010-08-19 15:16:56,40.29200,-110.08433,78,271,22788.00,""
2010-08-19 15:17:46,2010-08-19 15:17:46,40.29300,-110.09017,37,308,23288.00,""
2010-08-19 15:18:36,2010-08-19 15:18:36,40.29517,-110.09600,39,254,23836.00,""
2010-08-19 15:19:26,2010-08-19 15:19:26,40.29450,-110.10167,43,251,24364.00,""
2010-08-19 15:20:16,2010-08-19 15:20:16,40.29383,-110.10667,56,272,24913.00,""
2010-08-19 15:21:06,2010-08-19 15:21:06,40.29350,-110.11200,48,314,25483.00,""
2010-08-19 15:21:56,2010-08-19 15:21:56,40.29267,-110.11667,56,258,26024.00,""
2010-08-19 15:22:46,2010-08-19 15:22:46,40.29183,-110.12317,44,276,26560.00,""
2010-08-19 15:23:37,2010-08-19 15:23:37,40.29200,-110.13033,13,328,27118.00,""
2010-08-19 15:24:27,2010-08-19 15:24:27,40.29317,-110.13633,31,303,27623.00,""
2010-08-19 15:25:16,2010-08-19 15:25:16,40.29333,-110.14250,43,243,28050.00,""
2010-08-19 15:26:07,2010-08-19 15:26:07,40.29150,-110.14800,59,261,28464.00,""
2010-08-19 15:26:57,2010-08-19 15:26:57,40.28867,-110.15633,61,239,28905.00,""
2010-08-19 15:27:47,2010-08-19 15:27:47,40.28850,-110.16367,30,273,29371.00,""
2010-08-19 15:28:37,2010-08-19 15:28:37,40.28733,-110.17000,37,277,29795.00,""
2010-08-19 15:29:27,2010-08-19 15:29:27,40.28383,-110.17800,72,235,30219.00,""
2010-08-19 15:30:17,2010-08-19 15:30:53,40.28133,-110.18517,63,252,30643.00,""
2010-08-19 15:31:07,2010-08-19 15:31:07,40.27917,-110.19467,57,280,31074.00,""
2010-08-19 15:31:57,2010-08-19 15:31:57,40.27750,-110.20217,13,260,29265.00,""
2010-08-19 15:32:47,2010-08-19 15:32:47,40.27650,-110.20917,56,258,27403.00,""
2010-08-19 15:33:05,2010-08-19 15:33:05,40.27683,-110.21200,0,0,26841.00,""
2010-08-19 15:34:32,2010-08-19 15:34:32,40.27633,-110.22217,0,0,24263.00,""
2010-08-19 15:35:23,2010-08-19 15:35:23,40.27683,-110.22700,31,294,23002.00,""
2010-08-19 15:36:13,2010-08-19 15:36:13,40.27783,-110.23150,19,265,21898.00,""
2010-08-19 15:37:03,2010-08-19 15:37:03,40.27767,-110.23517,26,283,21023.00,""
2010-08-19 15:37:53,2010-08-19 15:37:53,40.27650,-110.23917,54,276,20115.00,""
2010-08-19 15:38:43,2010-08-19 15:38:43,40.27633,-110.24033,46,37,19308.00,""
2010-08-19 15:39:33,2010-08-19 15:39:33,40.27733,-110.23817,39,44,18559.00,""
2010-08-19 15:40:23,2010-08-19 15:40:23,40.27800,-110.23517,43,68,17912.00,""
2010-08-19 15:41:13,2010-08-19 15:41:13,40.27683,-110.22783,20,92,17290.00,""
2010-08-19 15:42:03,2010-08-19 15:42:03,40.27767,-110.22350,31,92,16642.00,""
2010-08-19 15:42:54,2010-08-19 15:42:54,40.28067,-110.21650,37,71,16040.00,""
2010-08-19 15:43:44,2010-08-19 15:43:44,40.28500,-110.21067,57,43,15462.00,""
2010-08-19 15:44:34,2010-08-19 15:44:34,40.28800,-110.20450,48,78,14913.00,""
2010-08-19 15:45:24,2010-08-19 15:45:24,40.28900,-110.19200,98,93,14455.00,""
2010-08-19 15:46:14,2010-08-19 15:46:14,40.29017,-110.17417,94,75,14060.00,""
2010-08-19 15:47:04,2010-08-19 15:47:04,40.29250,-110.15567,102,78,13643.00,""
2010-08-19 15:47:54,2010-08-19 15:47:54,40.29567,-110.13517,139,69,13236.00,""
2010-08-19 15:48:44,2010-08-19 15:48:44,40.30100,-110.11367,126,73,12845.00,""
2010-08-19 15:49:34,2010-08-19 15:49:34,40.30717,-110.09567,135,62,12461.00,""
2010-08-19 15:50:25,2010-08-19 15:50:25,40.31267,-110.07617,109,70,12090.00,""
2010-08-19 15:51:15,2010-08-19 15:51:15,40.31933,-110.05900,135,64,11719.00,""
2010-08-19 15:52:05,2010-08-19 15:52:05,40.32717,-110.04300,122,70,11365.00,""
2010-08-19 15:52:55,2010-08-19 15:52:55,40.33417,-110.02917,89,51,11007.00,""
2010-08-19 15:53:45,2010-08-19 15:53:45,40.34067,-110.01517,115,62,10665.00,""
2010-08-19 15:54:35,2010-08-19 15:54:35,40.34850,-110.00167,104,42,10323.00,""
2010-08-19 15:55:25,2010-08-19 15:55:25,40.35700,-109.98933,106,57,9975.00,""
2010-08-19 15:56:15,2010-08-19 15:56:15,40.36550,-109.97667,102,57,9655.00,""
2010-08-19 15:57:05,2010-08-19 15:57:05,40.37300,-109.96533,102,54,9333.00,""
2010-08-19 15:57:56,2010-08-19 15:57:56,40.37933,-109.95367,65,54,9037.00,""
2010-08-19 15:58:46,2010-08-19 15:58:46,40.38517,-109.94300,93,51,8735.00,""
2010-08-19 15:59:36,2010-08-19 15:59:36,40.39117,-109.93217,65,43,8442.00,""
2010-08-19 16:00:26,2010-08-19 16:00:26,40.39583,-109.92217,56,47,8158.00,""
2010-08-19 16:02:06,2010-08-19 16:02:06,40.40250,-109.90183,74,69,7577.00,""
2010-08-19 16:02:56,2010-08-19 16:02:56,40.40517,-109.89183,52,60,7294.00,""
2010-08-19 16:03:46,2010-08-19 16:03:46,40.40683,-109.88267,43,90,7023.00,""
2010-08-19 16:04:36,2010-08-19 16:04:36,40.40867,-109.87550,57,76,6754.00,""
2010-08-19 16:05:27,2010-08-19 16:05:27,40.40983,-109.86850,50,89,6493.00,""
2010-08-19 16:06:17,2010-08-19 16:06:17,40.41117,-109.86383,6,20,6228.00,""
2010-08-19 16:07:06,2010-08-19 16:07:06,40.41267,-109.86283,22,321,5966.00,""
2010-08-19 16:07:57,2010-08-19 16:07:57,40.41517,-109.86283,7,280,5717.00,""
2010-08-19 16:08:48,2010-08-19 16:08:48,40.41617,-109.86367,6,223,5454.00,""
2010-08-19 16:09:37,2010-08-19 16:09:37,40.41583,-109.86633,6,201,5196.00,""
2010-08-19 16:10:27,2010-08-19 16:10:27,40.41567,-109.86883,26,314,4938.00,""
2010-08-19 16:11:17,2010-08-19 16:11:17,40.41667,-109.87117,24,322,4676.00,""
2010-08-19 16:12:07,2010-08-19 16:12:07,40.41883,-109.87200,4,296,4455.00,""
2010-08-19 16:12:58,2010-08-19 16:12:58,40.42067,-109.87200,7,303,4229.00,""
2010-08-19 16:13:48,2010-08-19 16:13:48,40.42133,-109.87067,9,355,4008.00,""
2010-08-19 16:14:38,2010-08-19 16:14:38,40.42200,-109.86817,26,49,3793.00,""
2010-08-19 16:15:28,2010-08-19 16:15:28,40.42233,-109.86633,13,32,3593.00,""
2010-08-19 16:16:18,2010-08-19 16:16:18,40.42200,-109.86367,20,138,3384.00,""
2010-08-19 16:17:08,2010-08-19 16:17:08,40.42183,-109.86083,22,134,3165.00,""
2010-08-19 16:17:58,2010-08-19 16:17:58,40.42167,-109.85817,30,90,2964.00,""
2010-08-19 16:18:48,2010-08-19 16:18:48,40.42267,-109.85633,24,45,2763.00,""
2010-08-19 16:19:38,2010-08-19 16:19:38,40.42367,-109.85500,20,40,2551.00,""
2010-08-19 16:20:29,2010-08-19 16:20:29,40.42417,-109.85333,24,131,2323.00,""
2010-08-19 16:21:19,2010-08-19 16:21:19,40.42483,-109.85283,13,302,2113.00,""
2010-08-19 16:22:09,2010-08-19 16:22:09,40.42533,-109.85367,19,276,1917.00,""
2010-08-19 16:22:59,2010-08-19 16:22:59,40.42517,-109.85467,9,48,1711.00,""
2010-08-19 16:26:19,2010-08-19 16:30:30,40.42533,-109.85483,0,304,1678.00,""
2010-08-19 16:33:00,2010-08-19 16:38:51,40.42550,-109.85483,0,304,1680.00,""
2010-08-19 16:40:31,2010-08-19 16:47:11,40.42533,-109.85483,0,195,1671.00,""
2010-08-19 16:48:02,2010-08-19 17:00:33,40.42550,-109.85483,0,195,1679.00,""
2010-08-19 17:01:23,2010-08-19 17:02:13,40.42533,-109.85483,6,30,1680.00,""
2010-08-19 17:03:53,2010-08-19 17:03:53,40.42500,-109.85533,6,347,1708.00,""
2010-08-19 17:04:43,2010-08-19 17:04:43,40.42550,-109.85483,0,226,1668.00,""
2010-08-19 17:05:34,2010-08-19 17:05:34,40.42567,-109.85450,4,30,1694.00,""
2010-08-19 17:06:24,2010-08-19 17:06:24,40.42533,-109.85483,2,213,1693.00,""
2010-08-19 17:07:14,2010-08-19 17:07:14,40.42517,-109.85500,4,235,1702.00,""
2010-08-19 17:08:04,2010-08-19 17:08:04,40.42533,-109.85483,4,13,1698.00,""
2010-08-19 17:08:54,2010-08-19 17:08:54,40.42517,-109.85500,6,295,1703.00,""
2010-08-19 17:09:44,2010-08-19 17:09:44,40.42550,-109.85483,7,45,1707.00,""
2010-08-19 17:10:34,2010-08-19 17:10:34,40.42533,-109.85450,4,59,1684.00,""
2010-08-19 17:11:24,2010-08-19 17:11:24,40.42533,-109.85433,2,46,1694.00,""
2010-08-19 17:12:14,2010-08-19 17:12:14,40.42533,-109.85383,2,125,1694.00,""
2010-08-19 17:13:05,2010-08-19 17:13:05,40.42517,-109.85317,6,80,1675.00,""
2010-08-19 17:13:55,2010-08-19 17:13:55,40.42517,-109.85267,4,85,1669.00,""
2010-08-19 17:14:45,2010-08-19 17:14:45,40.42517,-109.85217,4,85,1683.00,""
2010-08-19 17:15:35,2010-08-19 17:15:35,40.42483,-109.85167,6,104,1686.00,""
2010-08-19 17:16:25,2010-08-19 17:16:25,40.42450,-109.85117,4,183,1682.00,""
2010-08-19 17:17:15,2010-08-19 17:17:15,40.42467,-109.85067,4,183,1679.00,""
2010-08-19 17:18:05,2010-08-19 17:18:05,40.42467,-109.85017,0,183,1687.00,""
2010-08-19 17:18:55,2010-08-19 17:18:55,40.42450,-109.85000,9,50,1694.00,""
2010-08-19 17:19:45,2010-08-19 17:19:45,40.42467,-109.84933,0,60,1689.00,""
2010-08-19 17:29:37,2010-08-19 17:31:17,40.42967,-109.84600,0,7,1692.00,""
2010-08-19 17:42:57,2010-08-19 17:42:57,40.33083,-109.84050,93,181,1588.00,""
2010-08-19 17:43:47,2010-08-19 17:43:47,40.31883,-109.84017,94,178,1561.00,""
2010-08-19 17:47:59,2010-08-19 17:47:59,40.30183,-109.88400,100,269,1565.00,""
2010-08-19 17:48:48,2010-08-19 17:48:48,40.30183,-109.89917,94,269,1594.00,""
2010-08-19 17:49:39,2010-08-19 17:49:39,40.30200,-109.91500,87,271,1561.00,""
2010-08-19 17:51:24,2010-08-19 17:51:24,40.30217,-109.94517,91,270,1524.00,""
2010-08-19 17:53:49,2010-08-19 17:53:49,40.30200,-109.98033,15,253,1552.00,""
2010-08-19 17:54:38,2010-08-19 17:58:01,40.30183,-109.98033,0,213,1547.00,""
2010-08-19 17:58:55,2010-08-19 17:58:55,40.30200,-109.98033,0,213,1546.00,""
2010-08-19 17:59:43,2010-08-19 18:07:13,40.30183,-109.98033,0,213,1548.00,""
2010-08-19 18:08:00,2010-08-19 18:08:00,40.30200,-109.98050,0,213,1550.00,""
2010-08-19 18:13:57,2010-08-19 18:13:57,40.30200,-109.98600,57,269,1556.00,""
2010-08-19 18:15:33,2010-08-19 18:15:33,40.29967,-109.98883,2,180,1568.00,""
2010-08-19 18:16:21,2010-08-19 18:16:21,40.29417,-109.98917,54,198,1559.00,""
2010-08-19 18:48:55,2010-08-19 18:50:35,40.29200,-109.99283,0,303,1516.00,""
2010-08-19 18:53:55,2010-08-19 18:53:55,40.29183,-109.99283,0,303,1522.00,""
2010-08-19 18:55:35,2010-08-19 18:56:26,40.29183,-109.99267,0,303,1536.00,""
2010-08-19 18:58:56,2010-08-19 18:58:56,40.29200,-109.99267,0,303,1535.00,""
2010-08-19 19:15:38,2010-08-19 19:15:38,40.29183,-109.99267,7,66,1534.00,""
2010-08-19 19:16:28,2010-08-19 19:16:28,40.29183,-109.99283,0,205,1543.00,""
2010-08-19 19:18:09,2010-08-19 19:18:09,40.29850,-109.98867,7,3,1619.00,""
2010-08-19 19:18:58,2010-08-19 19:18:58,40.29933,-109.98417,54,87,1554.00,""
